Overview Statistics Trail Chart Weather Telemetry Raw packets
 

This is the latest recevied weather packets stored in our database for station/object KF7SOJ. If no packets are shown the sender has not sent any weather packets the latest 10 day(s).

<< 54 55 56 57 58 59 60 >>
Time Temp. Humidity Pressure Rain* Wind** Luminosity Snow
1788245597 15° C 48% 931.5 hPa 0 mm - 0 W/m² -
1788245293 15.56° C 47% 931.7 hPa 0 mm - 0 W/m² -
1788244989 15.56° C 47% 931.5 hPa 0 mm - 0 W/m² -
1788244686 15.56° C 47% 931.6 hPa 0 mm - 0 W/m² -
1788244382 15.56° C 47% 931.7 hPa 0 mm - 0 W/m² -
1788244078 15.56° C 47% 931.7 hPa 0 mm - 0 W/m² -
1788243774 15.56° C 46% 931.5 hPa 0 mm - 0 W/m² -
1788243469 15.56° C 45% 931.6 hPa 0 mm - 0 W/m² -
1788243169 16.11° C 44% 931.6 hPa 0 mm - 0 W/m² -
1788242864 16.67° C 43% 931.5 hPa 0 mm - 0 W/m² -
1788242560 16.67° C 43% 931.5 hPa 0 mm - 0 W/m² -
1788242255 16.67° C 43% 931.6 hPa 0 mm - 0 W/m² -
1788241952 16.67° C 42% 931.6 hPa 0 mm - 0 W/m² -
1788241648 16.67° C 42% 931.7 hPa 0 mm - 0 W/m² -
1788241345 16.67° C 42% 931.6 hPa 0 mm - 0 W/m² -
1788241040 16.67° C 42% 931.5 hPa 0 mm - 0 W/m² -
1788240735 16.67° C 42% 931.8 hPa 0 mm - 0 W/m² -
1788240431 17.22° C 41% 931.7 hPa 0 mm - 0 W/m² -
1788240126 17.22° C 41% 931.7 hPa 0 mm - 0 W/m² -
1788239825 16.67° C 43% 931.7 hPa 0 mm - 0 W/m² -
1788239525 16.67° C 44% 931.8 hPa 0 mm - 0 W/m² -
1788239220 16.67° C 44% 931.8 hPa 0 mm - 0 W/m² -
1788238916 17.22° C 43% 931.9 hPa 0 mm - 0 W/m² -
1788238616 17.22° C 42% 932 hPa 0 mm - 0 W/m² -
1788238311 17.78° C 39% 931.7 hPa 0 mm - 0 W/m² -

* Rain latest hour (hover to see other rain measurements)
** Current wind speed in m/s (hover to see current wind gust speed)